Weather History for KPVD - August, 2014

Change the Weather History Date:

Saturday, August 2, 2014

  Actual Average Record
Temperature  
Mean Temperature 67 °F 74 °F  
Max Temperature 71 °F 83 °F 104 °F (1975)
Min Temperature 62 °F 65 °F 54 °F (1985)
Degree Days  
Heating Degree Days 0 0  
Month to date heating degree days 0 0  
Since 1 June heating degree days 13 46  
Since 1 July heating degree days 0 3  
Cooling Degree Days 2 9  
Month to date cooling degree days 10 18  
Year to date cooling degree days 413 442  
Since 1 June cooling degree days 402 416  
Growing Degree Days 16 (Base 50)    
Moisture  
Dew Point 62 °F    
Average Humidity 86    
Maximum Humidity 93    
Minimum Humidity 79    
Precipitation  
Precipitation 0.18 in 0.13 in 1.74 in (1952)
Month to date precipitation 0.18 0.25  
Year to date precipitation 28.93 27.25  
Snow  
Snow 0.00 in 0.00 in 0.00 in (2002)
Month to date snowfall 0.0 0.0  
Since 1 June snowfall 0.0 0.0  
Since 1 July snowfall 0.0 0.0  
Snow Depth 0.00 in    
Sea Level Pressure  
Sea Level Pressure 30.18 in    
Wind  
Wind Speed 6 mph (NE)    
Max Wind Speed 15 mph    
Max Gust Speed 18 mph    
Visibility 7 miles    
Events Rain    
T = Trace of Precipitation, MM = Missing Value Source: NWS Daily Summary

Daily Weather History Graph

Daily Weather History Graph

Search for Another Location

Airport or City:

Trip Planner

Search our weather history database for the weather conditions in past years. The results will help you decide how hot, cold, wet, or windy it might be!

Date:

Astronomy

Aug. 02, 2014 Rise Set
Actual Time 5:40 AM EDT 8:02 PM EDT
Civil Twilight 5:09 AM EDT 8:33 PM EDT
Nautical Twilight 4:30 AM EDT 9:12 PM EDT
Astronomical Twilight 3:47 AM EDT 9:54 PM EDT
Moon 12:05 PM EDT (8/2) 11:12 PM EDT (8/2)
Length of Visible Light 15h 24m
Length of Day
14h 21m
Waxing Crescent, 36% of the Moon is Illuminated
Aug 2
Waxing Crescent
Aug 3
First Quarter
Aug 10
Full
Aug 17
Last Quarter
Aug 25
New

Hourly Weather History & Observations

Time (EDT) Temp. Dew Point Humidity Pressure Visibility Wind Dir Wind Speed Gust Speed Precip Events Conditions
12:51 AM 71.1 °F 66.9 °F 87% 30.24 in 10.0 mi South 4.6 mph - N/A   Overcast
1:51 AM 70.0 °F 66.9 °F 90% 30.23 in 10.0 mi South 4.6 mph - N/A   Mostly Cloudy
2:51 AM 69.8 °F 66.2 °F 88% 30.22 in 10.0 mi South 6.9 mph - N/A Rain Light Rain
3:51 AM 69.1 °F 66.9 °F 93% 30.21 in 10.0 mi SSW 3.5 mph - 0.01 in Rain Light Rain
4:51 AM 69.1 °F 66.9 °F 93% 30.20 in 10.0 mi Calm Calm - 0.00 in   Overcast
5:51 AM 68.0 °F 66.9 °F 96% 30.20 in 10.0 mi ENE 3.5 mph - N/A   Overcast
6:51 AM 69.1 °F 66.9 °F 93% 30.22 in 10.0 mi Calm Calm - 0.00 in Rain Light Rain
7:51 AM 70.0 °F 66.0 °F 87% 30.22 in 10.0 mi Calm Calm - 0.00 in   Overcast
8:51 AM 71.1 °F 64.0 °F 78% 30.22 in 10.0 mi SE 3.5 mph - 0.00 in   Overcast
9:51 AM 68.0 °F 62.1 °F 81% 30.24 in 10.0 mi SSE 10.4 mph - 0.00 in   Overcast
10:51 AM 66.9 °F 60.1 °F 79% 30.23 in 10.0 mi SE 8.1 mph - 0.00 in Rain Light Rain
11:51 AM 64.9 °F 60.1 °F 84% 30.22 in 6.0 mi ESE 6.9 mph - 0.00 in Rain Light Rain
12:51 PM 64.0 °F 62.1 °F 93% 30.21 in 2.5 mi ESE 4.6 mph - 0.04 in Rain Rain
1:51 PM 62.1 °F 57.9 °F 86% 30.19 in 2.5 mi East 10.4 mph - 0.11 in Rain Light Rain
2:00 PM 62.1 °F 57.9 °F 86% 30.19 in 3.0 mi ENE 10.4 mph - 0.00 in Rain Light Rain
2:28 PM 63.0 °F 60.1 °F 90% 30.19 in 8.0 mi ENE 6.9 mph - 0.02 in Rain Light Rain
2:37 PM 62.1 °F 59.0 °F 90% 30.20 in 8.0 mi ENE 15.0 mph - 0.02 in Rain Light Rain
2:51 PM 62.1 °F 59.0 °F 90% 30.20 in 9.0 mi ENE 9.2 mph - 0.02 in   Overcast
3:44 PM 62.6 °F 60.8 °F 94% 30.18 in 9.0 mi NE 8.1 mph - N/A   Overcast
3:51 PM 63.0 °F 60.1 °F 90% 30.17 in 9.0 mi NE 8.1 mph - 0.00 in   Overcast
4:16 PM 63.0 °F 59.0 °F 87% 30.17 in 9.0 mi NE 11.5 mph - 0.00 in   Light Drizzle
4:46 PM 64.4 °F 60.8 °F 88% 30.16 in 10.0 mi NE 8.1 mph - N/A   Overcast
4:51 PM 64.0 °F 60.1 °F 87% 30.16 in 9.0 mi NE 6.9 mph - 0.00 in   Overcast
5:40 PM 64.0 °F 59.0 °F 84% 30.16 in 10.0 mi NE 6.9 mph - 0.00 in   Light Drizzle
5:51 PM 64.0 °F 60.1 °F 87% 30.15 in 10.0 mi NE 8.1 mph - 0.00 in   Light Drizzle
6:51 PM 63.0 °F 60.1 °F 90% 30.13 in 3.0 mi NNE 8.1 mph - 0.00 in   Light Drizzle
7:22 PM 63.0 °F 60.1 °F 90% 30.15 in 2.0 mi NNE 5.8 mph - 0.00 in   Light Drizzle
7:31 PM 62.1 °F 61.0 °F 96% 30.15 in 1.0 mi NNE 6.9 mph - 0.00 in   Light Drizzle
7:51 PM 62.1 °F 60.1 °F 93% 30.14 in 1.0 mi NNE 9.2 mph - 0.00 in Rain Light Rain
8:06 PM 62.1 °F 60.1 °F 93% 30.14 in 1.0 mi NNE 9.2 mph - 0.00 in   Light Drizzle
8:38 PM 62.1 °F 60.1 °F 93% 30.14 in 2.0 mi NNE 8.1 mph - 0.00 in   Light Drizzle
8:51 PM 62.1 °F 60.1 °F 93% 30.14 in 2.0 mi North 8.1 mph - 0.00 in   Light Drizzle
9:21 PM 62.1 °F 60.1 °F 93% 30.14 in 2.0 mi NNE 8.1 mph - 0.00 in   Overcast
9:29 PM 62.6 °F 60.8 °F 94% 30.13 in 8.0 mi NNE 10.4 mph - N/A   Overcast
9:51 PM 62.1 °F 60.1 °F 93% 30.14 in 10.0 mi NNE 9.2 mph - 0.00 in   Overcast
10:27 PM 62.6 °F 60.8 °F 94% 30.12 in 10.0 mi NNE 9.2 mph - N/A   Overcast
10:51 PM 62.1 °F 60.1 °F 93% 30.14 in 8.0 mi North 8.1 mph - N/A   Overcast
11:51 PM 62.1 °F 60.1 °F 93% 30.13 in 10.0 mi NNE 5.8 mph - N/A   Overcast